COSMOS 729

Satellite information

Favourite Embed

Satellite Type and Status

PAYLOADIN ORBIT

Key statistics

Satellite COSMOS 729 at a glance.

Uptime

18280

Days in orbit

Revolutions

≈ 13.7

Per day

Orbit

LEO

Low Earth Orbit

Inclination

83.0

Latest

Satellite identification and parameters

Extended collection of information and parameters for COSMOS 729.

Object identification

Identified? True

Debris? False

Object name: COSMOS 729

International designator: 1975-034A

Object number (NORAD): 7768

Object ID (CCSDS): 7768

Country: COMMONWEALTH OF INDEPENDENT STATES (CIS)

Current information (Y/N): Y

RCS size: LARGE

Orbital parameters

Period: 104.834 minutes

Inclination: 82.9642 deg

SMA: 7364.813 km

Apoapsis: 1003.048 km

Periapsis: 970.308 km

RAAN: 68.447 deg

Eccentricy: 0.0022227

Argument of periapsis: 207.1259 deg

Mean anomaly: 326.7201 deg

Mean motion: 13.73599652 rev/day

Mean motion (dot): 0.00000071 rev/day2

B* drag term: 0.000060051 1/REarth

Two-line elements (TLE)

Creation date: May 9, 2025, 2:46 a.m.

Reference frame: TEME

Reference center: EARTH

Epoch: May 8, 2025, 1:48 p.m. UTC

TLE line 0: 0 COSMOS 729

TLE line 1: 1 07768U 75034A 25128.57533292 .00000071 00000-0 60051-4 0 9995

TLE line 2: 2 07768 82.9642 68.4470 0022227 207.1259 326.7201 13.73599652507486

Live tracking on map

Real-time ground track for satellite COSMOS 729.

In-orbit conjunctions

A list of the most updated potential collisions computed for object COSMOS 729.

Target Orbit TCA Probability of collision Miss distance Type
THORAD AGENA D DEB SSO 2024-09-28 12:42:25 0.0002636007 190.0 (m) DEBRIS

Associated space launch

The first soviet navigation system called Tsiklon consisted of Zaliv satellites in low earth orbit.

COSMOS 729 was lifted into orbit during the mission ‘Kosmos-3M | Zaliv 19’, on board a Kosmos-3M space rocket.

The launch took place on April 22, 1975, 9:10 p.m. from 132/1 (132L).

For more information about the launch, click the button.

Launch to space Kosmos-3M | Zaliv 19
Kosmos-3M | Zaliv 19

Agency: N/A

Status: Launch Successful

Launch date: April 22, 1975, 9:10 p.m. UTC

Rocket: Kosmos-3M

Launch pad: 132/1 (132L)

Location: Plesetsk Cosmodrome, Russian Federation

...

Latest news about this satellite

There are no fresh news available about this satellite. Check back as we update our databases every day.


Newsletter sign-up

Weekly statistics, charts and insights to help you stay on top of the space industry.